| time (UTC) | temp F | wind direction | speed knots | gust knots | rain 1hr in | rain 24hr in | rain mn in | humidity % | barometer mb |
| 20260506015824 | 64 | 38 | 0.0 | 0.9 | 0.00 | 0.00 | 0.00 | 77 | 1017.8 |
| 20260506015321 | 64 | 142 | 0.0 | 0.0 | 0.00 | 0.00 | 0.00 | 76 | 1017.6 |
| 20260506014817 | 64 | 37 | 0.0 | 0.9 | 0.00 | 0.00 | 0.00 | 76 | 1017.6 |
| 20260506014314 | 64 | 95 | 0.0 | 0.9 | 0.00 | 0.00 | 0.00 | 75 | 1017.6 |
| 20260506013811 | 65 | 212 | 0.0 | 0.9 | 0.00 | 0.00 | 0.00 | 75 | 1017.7 |
| 20260506013309 | 65 | 124 | 0.0 | 0.9 | 0.00 | 0.00 | 0.00 | 74 | 1017.3 |
| 20260506012805 | 65 | 120 | 0.0 | 1.7 | 0.00 | 0.00 | 0.00 | 73 | 1017.2 |
| 20260506012307 | 65 | 109 | 0.9 | 0.9 | 0.00 | 0.00 | 0.00 | 73 | 1017.2 |
| 20260506011759 | 66 | 131 | 0.0 | 1.7 | 0.00 | 0.00 | 0.00 | 72 | 1017.3 |
| 20260506011255 | 66 | 131 | 0.9 | 0.9 | 0.00 | 0.00 | 0.00 | 72 | 1017.1 |
| 20260506010754 | 66 | 111 | 0.0 | 1.7 | 0.00 | 0.00 | 0.00 | 71 | 1017.2 |
| 20260506010251 | 66 | 113 | 0.0 | 1.7 | 0.00 | 0.00 | 0.00 | 71 | 1017.3 |
| 20260506005748 | 67 | 157 | 0.0 | 0.9 | 0.00 | 0.00 | 0.00 | 70 | 1017.5 |
| 20260506005245 | 67 | 142 | 0.0 | 0.9 | 0.00 | 0.00 | 0.00 | 69 | 1017.3 |
| 20260506004740 | 67 | 113 | 0.0 | 0.9 | 0.00 | 0.00 | 0.00 | 68 | 1017.2 |
| 20260506004238 | 68 | 326 | 0.0 | 0.9 | 0.00 | 0.00 | 0.00 | 68 | 1017.1 |
| 20260506003734 | 68 | 144 | 0.0 | 1.7 | 0.00 | 0.00 | 0.00 | 67 | 1017.0 |
| 20260506003231 | 68 | 128 | 0.9 | 1.7 | 0.00 | 0.00 | 0.00 | 67 | 1017.2 |
| 20260506002726 | 68 | 127 | 1.7 | 1.7 | 0.00 | 0.00 | 0.00 | 66 | 1017.3 |
| 20260506002223 | 69 | 108 | 0.0 | 0.9 | 0.00 | 0.00 | 0.00 | 66 | 1017.3 |
| 20260506001719 | 69 | 108 | 0.9 | 1.7 | 0.00 | 0.00 | 0.00 | 65 | 1017.2 |
| 20260506001217 | 69 | 142 | 0.0 | 0.9 | 0.00 | 0.00 | 0.00 | 65 | 1017.3 |
| 20260506000713 | 69 | 127 | 1.7 | 2.6 | 0.00 | 0.00 | 0.00 | 64 | 1017.1 |
| 20260506000212 | 70 | 127 | 1.7 | 3.5 | 0.00 | 0.00 | 0.00 | 64 | 1017.4 |
| 20260505235708 | 70 | 169 | 0.0 | 2.6 | 0.00 | 0.00 | 0.00 | 64 | 1017.3 |
| 20260505235206 | 70 | 53 | 0.0 | 2.6 | 0.00 | 0.00 | 0.00 | 63 | 1017.0 |
| 20260505234702 | 71 | 140 | 2.6 | 3.5 | 0.00 | 0.00 | 0.00 | 62 | 1017.2 |
| 20260505234200 | 71 | 142 | 0.9 | 3.5 | 0.00 | 0.00 | 0.00 | 62 | 1017.3 |
| 20260505233656 | 71 | 108 | 0.9 | 3.5 | 0.00 | 0.00 | 0.00 | 61 | 1017.1 |
| 20260505233154 | 71 | 139 | 0.0 | 2.6 | 0.00 | 0.00 | 0.00 | 62 | 1017.0 |
| 20260505232651 | 72 | 123 | 2.6 | 5.2 | 0.00 | 0.00 | 0.00 | 62 | 1016.8 |
| 20260505232149 | 72 | 116 | 2.6 | 5.2 | 0.00 | 0.00 | 0.00 | 62 | 1016.7 |
| 20260505231645 | 73 | 143 | 2.6 | 4.3 | 0.00 | 0.00 | 0.00 | 61 | 1017.1 |
| 20260505231144 | 73 | 74 | 1.7 | 7.0 | 0.00 | 0.00 | 0.00 | 60 | 1016.8 |
| 20260505230642 | 74 | 129 | 0.9 | 5.2 | 0.00 | 0.00 | 0.00 | 58 | 1016.9 |
| 20260505230138 | 74 | 110 | 5.2 | 5.2 | 0.00 | 0.00 | 0.00 | 56 | 1017.1 |
| 20260505225634 | 74 | 140 | 0.0 | 5.2 | 0.00 | 0.00 | 0.00 | 56 | 1016.9 |
| 20260505225131 | 75 | 128 | 3.5 | 4.3 | 0.00 | 0.00 | 0.00 | 55 | 1016.9 |
| 20260505224627 | 76 | 131 | 1.7 | 2.6 | 0.00 | 0.00 | 0.00 | 54 | 1017.0 |
| 20260505224125 | 76 | 111 | 0.9 | 3.5 | 0.00 | 0.00 | 0.00 | 54 | 1016.9 |
| 20260505223622 | 76 | 181 | 1.7 | 3.5 | 0.00 | 0.00 | 0.00 | 54 | 1016.8 |
| 20260505223118 | 76 | 9 | 0.0 | 4.3 | 0.00 | 0.00 | 0.00 | 53 | 1016.9 |
| 20260505222615 | 76 | 55 | 0.9 | 4.3 | 0.00 | 0.00 | 0.00 | 53 | 1017.0 |
| 20260505222111 | 76 | 89 | 1.7 | 5.2 | 0.00 | 0.00 | 0.00 | 53 | 1016.7 |
| 20260505221608 | 77 | 67 | 2.6 | 6.1 | 0.00 | 0.00 | 0.00 | 53 | 1016.9 |
| 20260505221104 | 77 | 134 | 2.6 | 3.5 | 0.00 | 0.00 | 0.00 | 53 | 1017.0 |
| 20260505220602 | 77 | 96 | 1.7 | 3.5 | 0.00 | 0.00 | 0.00 | 54 | 1017.2 |
| 20260505220100 | 76 | 36 | 3.5 | 5.2 | 0.00 | 0.00 | 0.00 | 53 | 1017.1 |
| 20260505215557 | 77 | 131 | 3.5 | 5.2 | 0.00 | 0.00 | 0.00 | 52 | 1017.0 |
| 20260505215055 | 78 | 124 | 0.9 | 2.6 | 0.00 | 0.00 | 0.00 | 52 | 1016.9 |
| 20260505214553 | 77 | 135 | 1.7 | 5.2 | 0.00 | 0.00 | 0.00 | 52 | 1017.3 |
| 20260505214049 | 77 | 137 | 1.7 | 3.5 | 0.00 | 0.00 | 0.00 | 52 | 1017.1 |
| 20260505213548 | 77 | 137 | 1.7 | 3.5 | 0.00 | 0.00 | 0.00 | 52 | 1017.2 |
| 20260505213043 | 77 | 165 | 1.7 | 6.1 | 0.00 | 0.00 | 0.00 | 51 | 1017.0 |
| 20260505212540 | 78 | 312 | 1.7 | 5.2 | 0.00 | 0.00 | 0.00 | 51 | 1017.2 |
| 20260505212038 | 77 | 263 | 1.7 | 5.2 | 0.00 | 0.00 | 0.00 | 50 | 1017.3 |
| 20260505211534 | 78 | 120 | 3.5 | 3.5 | 0.00 | 0.00 | 0.00 | 49 | 1017.5 |
| 20260505211031 | 79 | 120 | 2.6 | 5.2 | 0.00 | 0.00 | 0.00 | 48 | 1017.2 |
| 20260505210528 | 79 | 226 | 3.5 | 6.1 | 0.00 | 0.00 | 0.00 | 49 | 1017.3 |
| 20260505210025 | 79 | 230 | 5.2 | 5.2 | 0.00 | 0.00 | 0.00 | 48 | 1017.0 |
| 20260505205523 | 79 | 263 | 0.9 | 4.3 | 0.00 | 0.00 | 0.00 | 49 | 1016.9 |
| 20260505205020 | 79 | 281 | 2.6 | 4.3 | 0.00 | 0.00 | 0.00 | 48 | 1017.1 |
| 20260505204518 | 80 | 171 | 2.6 | 4.3 | 0.00 | 0.00 | 0.00 | 49 | 1017.2 |
| 20260505204014 | 80 | 98 | 1.7 | 3.5 | 0.00 | 0.00 | 0.00 | 46 | 1017.1 |
| 20260505203511 | 80 | 123 | 2.6 | 4.3 | 0.00 | 0.00 | 0.00 | 46 | 1017.1 |
| 20260505203008 | 79 | 262 | 5.2 | 5.2 | 0.00 | 0.00 | 0.00 | 47 | 1017.1 |
| 20260505202504 | 80 | 119 | 1.7 | 4.3 | 0.00 | 0.00 | 0.00 | 45 | 1017.1 |
| 20260505202000 | 79 | 20 | 1.7 | 6.1 | 0.00 | 0.00 | 0.00 | 45 | 1017.0 |
| 20260505201457 | 79 | 130 | 0.9 | 3.5 | 0.00 | 0.00 | 0.00 | 45 | 1017.1 |
| 20260505200955 | 80 | 116 | 3.5 | 5.2 | 0.00 | 0.00 | 0.00 | 44 | 1017.4 |
| 20260505200453 | 80 | 101 | 1.7 | 5.2 | 0.00 | 0.00 | 0.00 | 46 | 1017.3 |
| 20260505195948 | 79 | 292 | 3.5 | 4.3 | 0.00 | 0.00 | 0.00 | 50 | 1017.4 |
| 20260505195445 | 80 | 345 | 1.7 | 5.2 | 0.00 | 0.00 | 0.00 | 48 | 1017.2 |
| 20260505194942 | 79 | 126 | 2.6 | 5.2 | 0.00 | 0.00 | 0.00 | 49 | 1017.4 |
| 20260505194440 | 79 | 94 | 1.7 | 6.1 | 0.00 | 0.00 | 0.00 | 49 | 1017.5 |
| 20260505193940 | 79 | 279 | 4.3 | 5.2 | 0.00 | 0.00 | 0.00 | 48 | 1017.6 |
| 20260505193438 | 80 | 254 | 3.5 | 6.1 | 0.00 | 0.00 | 0.00 | 49 | 1017.7 |
| 20260505192935 | 79 | 123 | 2.6 | 6.1 | 0.00 | 0.00 | 0.00 | 49 | 1017.7 |
| 20260505192433 | 81 | 129 | 3.5 | 4.3 | 0.00 | 0.00 | 0.00 | 47 | 1018.0 |
| 20260505191931 | 80 | 160 | 3.5 | 5.2 | 0.00 | 0.00 | 0.00 | 48 | 1018.1 |
| 20260505191430 | 80 | 260 | 1.7 | 3.5 | 0.00 | 0.00 | 0.00 | 47 | 1018.2 |
| 20260505190926 | 80 | 121 | 4.3 | 8.7 | 0.00 | 0.00 | 0.00 | 47 | 1018.2 |
| 20260505190421 | 81 | 138 | 3.5 | 7.8 | 0.00 | 0.00 | 0.00 | 46 | 1018.4 |
| 20260505185916 | 80 | 81 | 0.9 | 4.3 | 0.00 | 0.00 | 0.00 | 47 | 1018.3 |
| 20260505185414 | 80 | 54 | 1.7 | 5.2 | 0.00 | 0.00 | 0.00 | 46 | 1018.4 |
| 20260505184910 | 80 | 153 | 3.5 | 7.0 | 0.00 | 0.00 | 0.00 | 46 | 1018.4 |
| 20260505184407 | 80 | 144 | 0.9 | 2.6 | 0.00 | 0.00 | 0.00 | 49 | 1018.3 |
| 20260505183904 | 79 | 178 | 3.5 | 7.8 | 0.00 | 0.00 | 0.00 | 48 | 1018.4 |
| 20260505183401 | 79 | 221 | 0.9 | 4.3 | 0.00 | 0.00 | 0.00 | 48 | 1018.3 |
| 20260505182857 | 80 | 206 | 0.0 | 8.7 | 0.00 | 0.00 | 0.00 | 46 | 1018.3 |
| 20260505182354 | 80 | 137 | 1.7 | 4.3 | 0.00 | 0.00 | 0.00 | 46 | 1018.2 |
| 20260505181851 | 79 | 225 | 2.6 | 5.2 | 0.00 | 0.00 | 0.00 | 46 | 1018.0 |
| 20260505181348 | 79 | 215 | 5.2 | 5.2 | 0.00 | 0.00 | 0.00 | 46 | 1018.0 |
| 20260505180845 | 80 | 180 | 1.7 | 6.1 | 0.00 | 0.00 | 0.00 | 45 | 1018.0 |
| 20260505180341 | 81 | 163 | 0.9 | 4.3 | 0.00 | 0.00 | 0.00 | 45 | 1018.4 |
| 20260505175838 | 80 | 251 | 4.3 | 5.2 | 0.00 | 0.00 | 0.00 | 46 | 1018.1 |
| 20260505175334 | 79 | 162 | 2.6 | 6.1 | 0.00 | 0.00 | 0.00 | 48 | 1018.0 |
| 20260505174831 | 80 | 82 | 2.6 | 4.3 | 0.00 | 0.00 | 0.00 | 45 | 1018.1 |
| 20260505174328 | 80 | 159 | 3.5 | 4.3 | 0.00 | 0.00 | 0.00 | 47 | 1018.2 |
| 20260505173824 | 78 | 155 | 3.5 | 6.1 | 0.00 | 0.00 | 0.00 | 50 | 1018.4 |
| 20260505173320 | 79 | 130 | 1.7 | 4.3 | 0.00 | 0.00 | 0.00 | 48 | 1018.0 |
| 20260505172818 | 79 | 117 | 2.6 | 3.5 | 0.00 | 0.00 | 0.00 | 48 | 1018.0 |
| 20260505172316 | 79 | 159 | 4.3 | 6.1 | 0.00 | 0.00 | 0.00 | 47 | 1017.9 |
| 20260505171815 | 79 | 339 | 3.5 | 3.5 | 0.00 | 0.00 | 0.00 | 46 | 1018.4 |
| 20260505171313 | 80 | 251 | 2.6 | 5.2 | 0.00 | 0.00 | 0.00 | 46 | 1018.5 |
| 20260505170808 | 80 | 248 | 0.0 | 4.3 | 0.00 | 0.00 | 0.00 | 47 | 1018.5 |
| 20260505170306 | 80 | 31 | 1.7 | 5.2 | 0.00 | 0.00 | 0.00 | 46 | 1018.5 |
| 20260505165801 | 79 | 136 | 3.5 | 7.8 | 0.00 | 0.00 | 0.00 | 48 | 1018.6 |
| 20260505165257 | 78 | 70 | 0.9 | 4.3 | 0.00 | 0.00 | 0.00 | 49 | 1018.6 |
| 20260505164753 | 78 | 201 | 3.5 | 6.1 | 0.00 | 0.00 | 0.00 | 49 | 1018.5 |
| 20260505164250 | 80 | 207 | 7.8 | 9.6 | 0.00 | 0.00 | 0.00 | 46 | 1019.1 |
| 20260505163748 | 81 | 164 | 0.9 | 6.1 | 0.00 | 0.00 | 0.00 | 47 | 1018.9 |
| 20260505163247 | 80 | 204 | 2.6 | 4.3 | 0.00 | 0.00 | 0.00 | 48 | 1018.6 |
| 20260505162744 | 79 | 315 | 0.9 | 3.5 | 0.00 | 0.00 | 0.00 | 49 | 1018.9 |
| 20260505162241 | 78 | 14 | 1.7 | 4.3 | 0.00 | 0.00 | 0.00 | 49 | 1018.9 |
| 20260505161737 | 78 | 176 | 1.7 | 2.6 | 0.00 | 0.00 | 0.00 | 49 | 1019.0 |
| 20260505161235 | 79 | 7 | 2.6 | 7.8 | 0.00 | 0.00 | 0.00 | 48 | 1018.9 |
| 20260505160732 | 78 | 127 | 0.9 | 3.5 | 0.00 | 0.00 | 0.00 | 49 | 1019.2 |
| 20260505160230 | 78 | 213 | 2.6 | 5.2 | 0.00 | 0.00 | 0.00 | 51 | 1019.2 |
| 20260505153209 | 78 | 147 | 1.7 | 2.6 | 0.00 | 0.00 | 0.00 | 55 | 1019.2 |
| 20260505152706 | 77 | 176 | 2.6 | 3.5 | 0.00 | 0.00 | 0.00 | 56 | 1019.2 |
| 20260505152202 | 77 | 113 | 2.6 | 5.2 | 0.00 | 0.00 | 0.00 | 54 | 1019.1 |
| 20260505151657 | 77 | 11 | 1.7 | 2.6 | 0.00 | 0.00 | 0.00 | 54 | 1019.1 |
| 20260505151155 | 76 | 36 | 0.9 | 4.3 | 0.00 | 0.00 | 0.00 | 56 | 1019.2 |
| 20260505150651 | 77 | 248 | 0.0 | 2.6 | 0.00 | 0.00 | 0.00 | 55 | 1019.1 |
| 20260505150148 | 77 | 235 | 2.6 | 4.3 | 0.00 | 0.00 | 0.00 | 54 | 1019.3 |
| 20260505140616 | 73 | 290 | 1.7 | 3.5 | 0.00 | 0.00 | 0.00 | 60 | 1019.0 |
| 20260505140114 | 73 | 296 | 0.9 | 3.5 | 0.00 | 0.00 | 0.00 | 62 | 1019.0 |
| 20260505125030 | 65 | 86 | 0.9 | 2.6 | 0.00 | 0.00 | 0.00 | 79 | 1019.0 |
| 20260505124526 | 65 | 141 | 0.0 | 1.7 | 0.00 | 0.00 | 0.00 | 80 | 1019.0 |
| 20260505124023 | 64 | 55 | 0.0 | 0.9 | 0.00 | 0.00 | 0.00 | 81 | 1019.1 |
| 20260505123519 | 63 | 322 | 0.0 | 0.0 | 0.00 | 0.00 | 0.00 | 85 | 1019.2 |
| 20260505123015 | 62 | 98 | 0.0 | 0.9 | 0.00 | 0.00 | 0.00 | 89 | 1019.0 |
| 20260505122513 | 62 | 347 | 0.0 | 0.0 | 0.00 | 0.00 | 0.00 | 93 | 1018.9 |
| 20260505122010 | 60 | 67 | 0.0 | 0.9 | 0.00 | 0.00 | 0.00 | 95 | 1019.0 |
| 20260505121506 | 59 | 50 | 0.0 | 0.0 | 0.00 | 0.00 | 0.00 | 96 | 1019.0 |
| 20260505121003 | 59 | 89 | 0.0 | 0.0 | 0.00 | 0.00 | 0.00 | 97 | 1019.0 |
| 20260505120459 | 57 | 129 | 0.0 | 0.0 | 0.00 | 0.00 | 0.00 | 97 | 1018.9 |
| 20260505115958 | 57 | 135 | 0.0 | 0.0 | 0.00 | 0.00 | 0.00 | 97 | 1018.9 |
| 20260505115454 | 56 | 103 | 0.0 | 0.0 | 0.00 | 0.00 | 0.00 | 97 | 1018.9 |
| 20260505114953 | 55 | 103 | 0.0 | 0.0 | 0.00 | 0.00 | 0.00 | 97 | 1018.8 |
| 20260505114449 | 55 | 30 | 0.0 | 0.0 | 0.00 | 0.00 | 0.00 | 97 | 1018.8 |
| 20260505113946 | 55 | 44 | 0.0 | 0.0 | 0.00 | 0.00 | 0.00 | 97 | 1018.7 |
| 20260505113442 | 54 | 44 | 0.0 | 0.0 | 0.00 | 0.00 | 0.00 | 97 | 1018.8 |
| 20260505112937 | 53 | 50 | 0.0 | 0.9 | 0.00 | 0.00 | 0.00 | 97 | 1018.6 |
| 20260505112435 | 53 | 315 | 0.0 | 0.0 | 0.00 | 0.00 | 0.00 | 97 | 1018.7 |
| 20260505111932 | 53 | 25 | 0.0 | 0.0 | 0.00 | 0.00 | 0.00 | 97 | 1018.7 |
| 20260505111426 | 52 | 25 | 0.0 | 0.0 | 0.00 | 0.00 | 0.00 | 97 | 1018.5 |
| 20260505110923 | 52 | 25 | 0.0 | 0.9 | 0.00 | 0.00 | 0.00 | 97 | 1018.4 |
| 20260505110420 | 52 | 352 | 0.0 | 0.0 | 0.00 | 0.00 | 0.00 | 97 | 1018.5 |
| 20260505101850 | 52 | 224 | 0.0 | 0.0 | 0.00 | 0.00 | 0.00 | 96 | 1017.8 |
| 20260505101345 | 52 | 157 | 0.0 | 0.0 | 0.00 | 0.00 | 0.00 | 96 | 1017.8 |
| 20260505100841 | 52 | 124 | 0.0 | 0.0 | 0.00 | 0.00 | 0.00 | 96 | 1017.8 |
| 20260505100338 | 52 | 11 | 0.0 | 0.0 | 0.00 | 0.00 | 0.00 | 96 | 1017.8 |
| 20260505095834 | 52 | 49 | 0.0 | 0.0 | 0.00 | 0.00 | 0.00 | 96 | 1017.7 |
| 20260505095332 | 52 | 89 | 0.0 | 0.0 | 0.00 | 0.00 | 0.00 | 96 | 1017.7 |
| 20260505094827 | 52 | 113 | 0.0 | 0.0 | 0.00 | 0.00 | 0.00 | 96 | 1017.5 |
| 20260505094325 | 52 | 113 | 0.0 | 0.0 | 0.00 | 0.00 | 0.00 | 96 | 1017.6 |
| 20260505093820 | 53 | 113 | 0.0 | 0.0 | 0.00 | 0.00 | 0.00 | 96 | 1017.6 |
| 20260505093318 | 53 | 92 | 0.0 | 1.7 | 0.00 | 0.00 | 0.00 | 96 | 1017.6 |
| 20260505092814 | 52 | 78 | 0.9 | 0.9 | 0.00 | 0.00 | 0.00 | 96 | 1017.5 |
| 20260505092313 | 53 | 113 | 0.0 | 0.0 | 0.00 | 0.00 | 0.00 | 96 | 1017.4 |
| 20260505091810 | 53 | 103 | 0.0 | 0.0 | 0.00 | 0.00 | 0.00 | 96 | 1017.4 |
| 20260505091308 | 53 | 102 | 0.0 | 0.9 | 0.00 | 0.00 | 0.00 | 96 | 1017.5 |
| 20260505090806 | 53 | 113 | 0.0 | 0.0 | 0.00 | 0.00 | 0.00 | 96 | 1017.6 |
| 20260505090304 | 53 | 113 | 0.0 | 0.0 | 0.00 | 0.00 | 0.00 | 96 | 1017.5 |
| 20260505085800 | 53 | 333 | 0.0 | 0.0 | 0.00 | 0.00 | 0.00 | 96 | 1017.4 |
| 20260505085258 | 53 | 333 | 0.0 | 0.0 | 0.00 | 0.00 | 0.00 | 96 | 1017.3 |
| 20260505084755 | 53 | 333 | 0.0 | 0.0 | 0.00 | 0.00 | 0.00 | 95 | 1017.5 |
| 20260505084249 | 53 | 333 | 0.0 | 0.0 | 0.00 | 0.00 | 0.00 | 95 | 1017.4 |
| 20260505083745 | 53 | 336 | 0.9 | 0.9 | 0.00 | 0.00 | 0.00 | 95 | 1017.2 |
| 20260505083242 | 53 | 13 | 0.0 | 0.0 | 0.00 | 0.00 | 0.00 | 95 | 1017.2 |
| 20260505082738 | 53 | 32 | 0.0 | 0.0 | 0.00 | 0.00 | 0.00 | 95 | 1017.1 |
| 20260505082235 | 53 | 135 | 0.0 | 0.0 | 0.00 | 0.00 | 0.00 | 95 | 1017.2 |
| 20260505081731 | 53 | 13 | 0.0 | 0.0 | 0.00 | 0.00 | 0.00 | 95 | 1017.1 |
| 20260505081229 | 53 | 13 | 0.0 | 0.0 | 0.00 | 0.00 | 0.00 | 95 | 1017.1 |
| 20260505080726 | 53 | 29 | 0.0 | 0.9 | 0.00 | 0.00 | 0.00 | 95 | 1017.0 |
| 20260505080221 | 53 | 309 | 0.0 | 0.0 | 0.00 | 0.00 | 0.00 | 95 | 1017.1 |
| 20260505075717 | 53 | 315 | 0.0 | 0.0 | 0.00 | 0.00 | 0.00 | 95 | 1017.1 |
| 20260505075214 | 53 | 73 | 0.0 | 0.9 | 0.00 | 0.00 | 0.00 | 94 | 1017.0 |
| 20260505074712 | 53 | 63 | 0.0 | 0.9 | 0.00 | 0.00 | 0.00 | 94 | 1016.9 |
| 20260505074208 | 53 | 110 | 0.0 | 0.9 | 0.00 | 0.00 | 0.00 | 94 | 1016.9 |
| 20260505073706 | 54 | 345 | 0.0 | 0.0 | 0.00 | 0.00 | 0.00 | 94 | 1017.2 |
| 20260505073204 | 54 | 199 | 0.0 | 0.0 | 0.00 | 0.00 | 0.00 | 94 | 1017.1 |
| 20260505072659 | 54 | 124 | 0.0 | 0.0 | 0.00 | 0.00 | 0.00 | 94 | 1016.9 |
| 20260505072156 | 54 | 55 | 0.0 | 0.0 | 0.00 | 0.00 | 0.00 | 94 | 1017.0 |
| 20260505071651 | 54 | 55 | 0.0 | 0.0 | 0.00 | 0.00 | 0.00 | 93 | 1017.0 |
| 20260505071150 | 54 | 66 | 0.0 | 0.0 | 0.00 | 0.00 | 0.00 | 94 | 1017.0 |
| 20260505070646 | 54 | 66 | 0.0 | 0.9 | 0.00 | 0.00 | 0.00 | 94 | 1017.0 |
| 20260505070143 | 54 | 49 | 0.9 | 0.9 | 0.00 | 0.00 | 0.00 | 93 | 1017.0 |
| 20260505065639 | 54 | 63 | 0.0 | 0.9 | 0.00 | 0.00 | 0.00 | 93 | 1017.1 |
| 20260505065136 | 54 | 38 | 0.9 | 0.9 | 0.00 | 0.00 | 0.00 | 93 | 1017.1 |
| 20260505064632 | 54 | 136 | 0.9 | 0.9 | 0.00 | 0.00 | 0.00 | 93 | 1017.1 |
| 20260505064131 | 54 | 157 | 0.0 | 0.0 | 0.00 | 0.00 | 0.00 | 93 | 1017.1 |
| 20260505063628 | 54 | 77 | 0.0 | 0.0 | 0.00 | 0.00 | 0.00 | 92 | 1017.1 |
| 20260505063124 | 54 | 315 | 0.0 | 0.0 | 0.00 | 0.00 | 0.00 | 92 | 1017.2 |
| 20260505062620 | 54 | 44 | 0.0 | 0.0 | 0.00 | 0.00 | 0.00 | 92 | 1017.4 |
| 20260505062118 | 54 | 50 | 0.0 | 0.0 | 0.00 | 0.00 | 0.00 | 92 | 1017.4 |
| 20260505061615 | 54 | 110 | 0.0 | 0.0 | 0.00 | 0.00 | 0.00 | 92 | 1017.8 |
| 20260505061113 | 54 | 66 | 0.0 | 0.0 | 0.00 | 0.00 | 0.00 | 92 | 1017.6 |
| 20260505060610 | 54 | 77 | 0.0 | 0.0 | 0.00 | 0.00 | 0.00 | 91 | 1017.9 |
| 20260505060107 | 54 | 50 | 0.0 | 0.9 | 0.00 | 0.00 | 0.00 | 91 | 1017.8 |
| 20260505055602 | 54 | 130 | 0.0 | 0.0 | 0.00 | 0.00 | 0.00 | 91 | 1017.8 |
| 20260505055059 | 54 | 60 | 0.0 | 0.0 | 0.00 | 0.00 | 0.00 | 91 | 1017.9 |
| 20260505054556 | 54 | 50 | 0.0 | 0.0 | 0.00 | 0.00 | 0.00 | 91 | 1017.8 |
| 20260505054054 | 55 | 50 | 0.0 | 0.9 | 0.00 | 0.00 | 0.00 | 90 | 1018.0 |
| 20260505053551 | 54 | 50 | 0.9 | 0.9 | 0.00 | 0.00 | 0.00 | 90 | 1017.9 |
| 20260505053048 | 55 | 54 | 0.0 | 0.9 | 0.00 | 0.00 | 0.00 | 90 | 1018.0 |
| 20260505052544 | 55 | 50 | 0.0 | 0.0 | 0.00 | 0.00 | 0.00 | 90 | 1018.2 |
| 20260505052042 | 55 | 111 | 0.0 | 0.0 | 0.00 | 0.00 | 0.00 | 89 | 1018.1 |
| 20260505051539 | 55 | 141 | 0.0 | 0.0 | 0.00 | 0.00 | 0.00 | 89 | 1018.2 |
| 20260505051037 | 55 | 19 | 0.0 | 0.0 | 0.00 | 0.00 | 0.00 | 89 | 1018.3 |
| 20260505050535 | 55 | 19 | 0.0 | 0.0 | 0.00 | 0.00 | 0.00 | 88 | 1018.2 |
| 20260505041502 | 56 | 11 | 0.0 | 0.0 | 0.00 | 0.00 | 0.00 | 84 | 1018.4 |
| 20260505041000 | 56 | 299 | 0.0 | 0.0 | 0.00 | 0.00 | 0.00 | 84 | 1018.3 |
| 20260505040457 | 57 | 119 | 0.0 | 0.9 | 0.00 | 0.00 | 0.00 | 83 | 1018.3 |
| 20260505035954 | 57 | 122 | 0.0 | 0.9 | 0.00 | 0.00 | 0.00 | 83 | 1018.2 |
| 20260505035450 | 57 | 129 | 0.0 | 0.0 | 0.00 | 0.00 | 0.00 | 83 | 1018.4 |
| 20260505034947 | 57 | 356 | 0.0 | 0.9 | 0.00 | 0.00 | 0.00 | 82 | 1018.3 |
| 20260505034443 | 57 | 89 | 0.0 | 0.0 | 0.00 | 0.00 | 0.00 | 82 | 1018.3 |
| 20260505033941 | 57 | 150 | 0.0 | 0.0 | 0.00 | 0.00 | 0.00 | 81 | 1018.4 |
| 20260505033437 | 57 | 186 | 0.0 | 0.0 | 0.00 | 0.00 | 0.00 | 81 | 1018.5 |
| 20260505032936 | 58 | 124 | 0.0 | 0.0 | 0.00 | 0.00 | 0.00 | 80 | 1018.1 |
| 20260505032433 | 58 | 129 | 0.0 | 0.9 | 0.00 | 0.00 | 0.00 | 80 | 1018.4 |
| 20260505031929 | 58 | 50 | 0.0 | 0.0 | 0.00 | 0.00 | 0.00 | 79 | 1018.3 |
| 20260505031426 | 58 | 287 | 0.0 | 0.0 | 0.00 | 0.00 | 0.00 | 78 | 1018.2 |
| 20260505030923 | 58 | 37 | 0.9 | 0.9 | 0.00 | 0.00 | 0.00 | 78 | 1018.4 |
| 20260505030419 | 59 | 129 | 0.0 | 0.0 | 0.00 | 0.00 | 0.00 | 77 | 1018.4 |
| 20260505025914 | 59 | 309 | 0.0 | 0.0 | 0.00 | 0.00 | 0.00 | 77 | 1018.4 |
| 20260505025412 | 59 | 124 | 0.0 | 0.0 | 0.00 | 0.00 | 0.00 | 76 | 1018.3 |
| 20260505024911 | 59 | 129 | 0.0 | 0.0 | 0.00 | 0.00 | 0.00 | 75 | 1018.3 |
| 20260505024408 | 60 | 113 | 0.0 | 0.9 | 0.00 | 0.00 | 0.00 | 75 | 1018.4 |
| 20260505023905 | 60 | 98 | 0.9 | 0.9 | 0.00 | 0.00 | 0.00 | 75 | 1018.2 |
| 20260505023402 | 60 | 89 | 0.0 | 0.9 | 0.00 | 0.00 | 0.00 | 74 | 1018.2 |
| 20260505022859 | 60 | 89 | 0.0 | 1.7 | 0.00 | 0.00 | 0.00 | 73 | 1018.1 |
| 20260505022356 | 60 | 89 | 0.0 | 0.9 | 0.00 | 0.00 | 0.00 | 73 | 1018.1 |
| 20260505021853 | 60 | 80 | 0.0 | 0.0 | 0.00 | 0.00 | 0.00 | 72 | 1018.2 |
| 20260505021349 | 60 | 124 | 0.0 | 0.9 | 0.00 | 0.00 | 0.00 | 71 | 1018.1 |
| 20260505020845 | 61 | 142 | 0.0 | 0.0 | 0.00 | 0.00 | 0.00 | 70 | 1018.2 |
| 20260505020341 | 61 | 129 | 0.0 | 0.0 | 0.00 | 0.00 | 0.00 | 69 | 1018.2 |